Regional Weather Roundup
Issued by NWS

Home | Current Version | Previous Version | Text Only | Print | Product List | Glossary On
Versions: 1 2 3 4 5 6 7 8 9 10 11 12 13 14 15 16 17 18 19 20 21 22 23 24 25 26 27 28 29 30 31 32 33 34 35 36 37 38 39 40 41 42 43 44 45 46 47 48 49 50
000
ASUS43 KMKX 191600
RWRWI

WISCONSIN REGIONAL WEATHER ROUNDUP
NATIONAL WEATHER SERVICE MILWAUKEE/SULLIVAN WI
1100 AM CDT FRI SEP 19 2014

NOTE: "FAIR" INDICATES FEW OR NO CLOUDS BELOW 12,000 FEET WITH NO
SIGNIFICANT WEATHER AND/OR OBSTRUCTIONS TO VISIBILITY.

WIZ001-002-006>008-014>016-023>028-191700-
NORTHWEST WISCONSIN

CITY           SKY/WX    TMP DP  RH WIND       PRES   REMARKS
SUPERIOR ARPT  CLOUDY    62  53  73 SW14      29.77F
ASHLAND        CLOUDY    62  51  67 S14G30    29.82F
HAYWARD        CLOUDY    61  51  70 S20G32    29.86F
SIREN          CLOUDY    62  52  69 S17       29.83F
RICE LAKE      CLOUDY    60  52  74 SE13      29.91F
LADYSMITH      PTSUNNY   62  52  69 S13G22    29.95F
EAU CLAIRE     MOSUNNY   66  53  63 S16G25    29.92F
MENOMONIE      MOSUNNY   67  54  63 S17       29.91F
NEW RICHMOND   PTSUNNY   65  53  65 S17G24    29.87F
OSCEOLA        CLOUDY    64  54  69 S17       29.88F
$$

WIZ003>005-009-010-017-018-191700-
NORTH CENTRAL WISCONSIN

CITY           SKY/WX    TMP DP  RH WIND       PRES   REMARKS
WOODRUFF       PTSUNNY   59  50  71 S18G24    29.96F
RHINELANDER    PTSUNNY   58  48  69 SW10      30.00F
EAGLE RIVER    MOSUNNY   59  47  64 SW15G23   29.97F
LAND O LAKES   MOSUNNY   61  49  65 S10G18    29.96F
PHILLIPS       CLOUDY    59  51  74 S15G22    29.93F
TOMAHAWK       PTSUNNY   59  50  73 S7        30.00F
MEDFORD        PTSUNNY   56  50  80 S14G20    30.00F
MERRILL        CLOUDY    58  51  76 S9        30.01F
$$

WIZ029-030-035-036-043>047-191700-
CENTRAL WISCONSIN

CITY           SKY/WX    TMP DP  RH WIND       PRES   REMARKS
WAUSAU         PTSUNNY   60  51  72 S13       30.01F
MOSINEE        MOSUNNY   57  54  88 S15       30.04F
MARSHFIELD     MOSUNNY   62  52  69 S15G21    30.00F
STEVENS POINT  SUNNY     59  51  75 S10       30.04F
WAUPACA        MOSUNNY   60  59  96 S12       30.08F
WAUTOMA        NOT AVBL
WISC RAPIDS    SUNNY     64  52  64 S13G21    30.04F
CAMP DOUGLAS   NOT AVBL
$$

WIZ011>013-019>022-031-037>040-048>050-191700-
NORTHEAST WISCONSIN

CITY           SKY/WX    TMP DP  RH WIND       PRES   REMARKS
ANTIGO         PTSUNNY   55  51  88 S13       30.04F
STURGEON BAY   CLOUDY    61  55  82 S14G26    30.08F
GREEN BAY      SUNNY     67  54  63 S13       30.07F
MANITOWOC      NOT AVBL
APPLETON       MOSUNNY   64  54  68 S14G20    30.08F
CLINTONVILLE   MOSUNNY   63  54  72 S13       30.05F
OSHKOSH        SUNNY     66  54  65 S16G25    30.07F
$$

WIZ032>034-041-042-053>061-191700-
SOUTHWEST WISCONSIN

CITY           SKY/WX    TMP DP  RH WIND       PRES   REMARKS
LA CROSSE      SUNNY     68  54  60 S18       29.96F
SPARTA         SUNNY     64  50  59 S12       30.02F
VIROQUA        FAIR      62  54  73 S12       30.04S
BOSCOBEL       SUNNY     68  54  60 S10G17    30.05F
PRAIRIE DU CHI SUNNY     64  52  66 SE8       30.04F
PLATTEVILLE    FAIR      63  55  75 S12G18    30.09F
$$

WIZ056-057-062-063-064-067-068-191700-
SOUTH CENTRAL WISCONSIN

CITY           SKY/WX    TMP DP  RH WIND       PRES   REMARKS
BARABOO/DELLS  SUNNY     63  52  67 S10       30.07F
LONE ROCK      NOT AVBL
WATERTOWN      SUNNY     66  52  61 S12       30.10S
MADISON        MOSUNNY   67  53  61 S14       30.08F
MIDDLETON      FAIR      66  53  63 S12       30.09F
MONROE         SUNNY     63  54  72 S14       30.10F
JANESVILLE     SUNNY     68  52  56 S13       30.11F
$$

WIZ051-052-058>065-066-070>072-191700-
SOUTHEAST WISCONSIN

CITY           SKY/WX    TMP DP  RH WIND       PRES   REMARKS
MILWAUKEE      PTSUNNY   67  54  63 S14       30.11F
WAUKESHA       SUNNY     64  52  63 S8        30.13F
MILWAUKEE/TIMM SUNNY     64  50  59 S12G17    30.11F
RACINE         SUNNY     65  55  70 S12       30.13F
BURLINGTON     SUNNY     65  52  64 S7        30.12F
KENOSHA        SUNNY     67  54  63 S10       30.12F
FOND DU LAC    SUNNY     67  52  58 SW17      30.08F
SHEBOYGAN      SUNNY     66  54  65 S18       30.10F
WEST BEND      SUNNY     64  52  63 S8        30.10F
JUNEAU         SUNNY     65  53  65 S13       30.11S
$$

LSZ147-162-191700-
LAKE SUPERIOR

STATION/POSITION TIME  TEMP    WIND        PRES    WAVE
                       AIR SEA DIR/SP/G            HT/PER
                 (UTC) (F)     (DEG/KT/KT) (MB)    (FT/S)
W MID LAKE BUOY  1450   53 48  190/ 16/ 16 1010.8F   3/ 4
DEVILS ISLAND    1500   59     190/ 12/ 16 1009.9F
PORT WING        1512   63     180/ 16/ 25 1008.8F
SAXON HARBOR     1500   62     200/ 12/ 19 1011.5R
$$

LMZ867-665-643>646-191700-
LAKE MICHIGAN

STATION/POSITION TIME  TEMP    WIND        PRES    WAVE
                       AIR SEA DIR/SP/G            HT/PER
                 (UTC) (F)     (DEG/KT/KT) (MB)    (FT/S)
N MID LAKE BUOY  1450   55 58  200/ 21/ 25 1019.4F   4/ 6
NORTHPORT PIER   1501   58     160/  9/ 20 1018.6F
KEWAUNEE LAKESHO 1500   56     180/ 12/ 14 1018.8F
SHEBOYGAN LAKESH 1500   59 51  180/ 18/ 18 1020.4F
PORT WASHINGTON  1500   64     190/  7/ 10 1021.0F
ATWATER BUOY     1500   61     170/ 16/ 17 1021.3F
MILWAUKEE LAKESH 1500   60     150/ 14/ 16   N/A
S MID LAKE BUOY  1450   61 65  160/ 17/ 21 1021.3F   4/ 5
KENOSHA   LAKESH 1500   61     170/ 16/ 19 1020.7F
$$

TC  - TEMPERATURE IN CELSIUS
VSB - VISIBILITY IN STATUTE MILES
WCI - WIND CHILL INDEX
HX  - HEAT INDEX



USA.gov is the U.S. government's official web portal to all federal, state and local government web resources and services.